Weather History for Stafford, VA

Change the Weather History Date:

Monday, February 18, 2013

  Actual Average (KNYG) Record (KNYG)
Temperature  
Mean Temperature 28 °F -  
Max Temperature 46 °F 46 °F 75 °F (2011)
Min Temperature 11 °F 29 °F 18 °F (2006)
Degree Days  
Heating Degree Days 36    
Moisture  
Dew Point 11 °F    
Average Humidity 50    
Maximum Humidity 91    
Minimum Humidity 22    
Precipitation  
Precipitation 0.00 in - - ()
Sea Level Pressure  
Sea Level Pressure 30.33 in    
Wind  
Wind Speed 2 mph (SSW)    
Max Wind Speed 9 mph    
Max Gust Speed -    
Visibility 10 miles    
Events      
Averages and records for this station are not official NWS values.
T = Trace of Precipitation, MM = Missing Value Source: NWS Daily Summary

Daily Weather History Graph

Daily Weather History Graph

Search for Another Location

Airport:

Trip Planner

Search our weather history database for the weather conditions in past years. The results will help you decide how hot, cold, wet, or windy it might be!

Date:

Astronomy

Feb. 18, 2013 Rise Set
Actual Time 6:56 AM EST 5:51 PM EST
Civil Twilight 6:29 AM EST 6:18 PM EST
Nautical Twilight 5:58 AM EST 6:49 PM EST
Astronomical Twilight 5:27 AM EST 7:20 PM EST
Moon 11:38 AM EST (2/18) 1:32 AM EST (2/18)
Length of Visible Light 11h 49m
Length of Day
10h 55m
First Quarter, 58% of the Moon is Illuminated
Feb 18
First Quarter
Feb 25
Full
Mar 4
Last Quarter
Mar 11
New
Mar 19
First Quarter

Hourly Weather History & Observations

Time (EST) Temp. Windchill Dew Point Humidity Pressure Visibility Wind Dir Wind Speed Gust Speed Precip Events Conditions
12:15 AM 23.4 °F - 6.3 °F 48% 30.27 in 10.0 mi Calm Calm - N/A   Clear
12:35 AM 21.9 °F - 8.8 °F 57% 30.28 in 10.0 mi Calm Calm - N/A   Clear
12:55 AM 19.6 °F - 10.4 °F 68% 30.30 in 10.0 mi Calm Calm - N/A   Clear
1:15 AM 18.9 °F 13.7 °F 10.0 °F 69% 30.30 in 10.0 mi West 3.5 mph - N/A   Clear
1:55 AM 17.6 °F - 9.9 °F 72% 30.30 in 10.0 mi Calm Calm - N/A   Clear
2:15 AM 19.2 °F 14.1 °F 9.1 °F 65% 30.32 in 10.0 mi South 3.5 mph - N/A   Clear
2:35 AM 19.4 °F - 9.5 °F 65% 30.32 in 10.0 mi Calm Calm - N/A   Clear
2:55 AM 17.4 °F 12.1 °F 10.2 °F 73% 30.33 in 10.0 mi SSW 3.5 mph - N/A   Clear
3:15 AM 17.6 °F - 10.4 °F 73% 30.33 in 10.0 mi Calm Calm - N/A   Clear
3:35 AM 16.7 °F 11.2 °F 10.6 °F 77% 30.34 in 10.0 mi SE 3.5 mph - N/A   Clear
3:55 AM 16.5 °F - 9.9 °F 75% 30.33 in 10.0 mi Calm Calm - N/A   Clear
4:15 AM 14.5 °F - 10.4 °F 84% 30.33 in 10.0 mi Calm Calm - N/A   Clear
4:35 AM 13.8 °F - 10.2 °F 86% 30.35 in 10.0 mi Calm Calm - N/A   Clear
4:55 AM 12.9 °F - 10.2 °F 89% 30.36 in 10.0 mi Calm Calm - N/A   Clear
5:15 AM 13.6 °F - 10.2 °F 86% 30.37 in 10.0 mi Calm Calm - N/A   Clear
5:35 AM 14.0 °F - 10.2 °F 85% 30.38 in 10.0 mi Calm Calm - N/A   Clear
5:55 AM 13.1 °F - 10.8 °F 90% 30.38 in 10.0 mi Calm Calm - N/A   Clear
6:15 AM 11.7 °F 5.5 °F 9.5 °F 91% 30.38 in 10.0 mi WNW 3.5 mph - N/A   Clear
6:35 AM 14.0 °F 8.2 °F 10.4 °F 86% 30.39 in 10.0 mi WNW 3.5 mph - N/A   Clear
6:55 AM 13.1 °F - 10.0 °F 88% 30.40 in 10.0 mi Calm Calm - N/A   Clear
7:15 AM 12.4 °F 4.6 °F 10.0 °F 90% 30.41 in 10.0 mi SE 4.6 mph - N/A   Clear
7:35 AM 14.2 °F - 11.7 °F 90% 30.42 in 10.0 mi Calm Calm - N/A   Clear
7:55 AM 16.9 °F - 12.9 °F 84% 30.42 in 10.0 mi Calm Calm - N/A   Clear
8:15 AM 19.9 °F - 15.3 °F 82% 30.42 in 10.0 mi Calm Calm - N/A   Clear
8:35 AM 23.0 °F - 13.8 °F 68% 30.43 in 10.0 mi Calm Calm - N/A   Clear
8:55 AM 26.4 °F 22.4 °F 12.9 °F 57% 30.43 in 10.0 mi WNW 3.5 mph - N/A   Clear
9:15 AM 28.6 °F 24.8 °F 11.7 °F 49% 30.43 in 10.0 mi NW 3.5 mph - N/A   Clear
9:35 AM 30.7 °F 24.9 °F 10.9 °F 44% 30.44 in 10.0 mi WNW 5.8 mph - N/A   Clear
9:55 AM 31.5 °F - 9.9 °F 41% 30.43 in 10.0 mi Calm Calm - N/A   Clear
10:15 AM 32.0 °F 26.4 °F 8.8 °F 38% 30.43 in 10.0 mi WNW 5.8 mph - N/A   Clear
10:35 AM 33.1 °F 27.7 °F 9.3 °F 37% 30.43 in 10.0 mi WNW 5.8 mph - N/A   Clear
10:55 AM 33.8 °F 28.6 °F 9.1 °F 36% 30.43 in 10.0 mi WNW 5.8 mph - N/A   Clear
11:15 AM 33.8 °F - 8.1 °F 34% 30.42 in 10.0 mi Calm Calm - N/A   Clear
11:35 AM 35.2 °F - 9.1 °F 34% 30.41 in 10.0 mi Calm Calm - N/A   Clear
11:55 AM 36.3 °F - 9.3 °F 33% 30.40 in 10.0 mi Calm Calm - N/A   Clear
12:15 PM 37.2 °F 34.7 °F 9.3 °F 32% 30.39 in 10.0 mi NW 3.5 mph - N/A   Clear
12:35 PM 38.3 °F 33.9 °F 9.3 °F 30% 30.38 in 10.0 mi West 5.8 mph - N/A   Clear
12:55 PM 39.4 °F 36.1 °F 9.1 °F 29% 30.36 in 10.0 mi SSW 4.6 mph - N/A   Clear
1:15 PM 40.1 °F - 8.8 °F 28% 30.35 in 10.0 mi Calm Calm - N/A   Clear
1:35 PM 41.0 °F 38.0 °F 9.3 °F 27% 30.34 in 10.0 mi SSW 4.6 mph - N/A   Clear
1:55 PM 41.7 °F 38.0 °F 9.3 °F 27% 30.33 in 10.0 mi SE 5.8 mph - N/A   Clear
2:15 PM 42.8 °F 38.0 °F 9.7 °F 26% 30.32 in 10.0 mi South 8.1 mph - N/A   Clear
2:35 PM 43.9 °F 39.9 °F 9.9 °F 25% 30.31 in 10.0 mi SSW 6.9 mph - N/A   Clear
3:15 PM 45.5 °F 44.2 °F 7.9 °F 22% 30.29 in 10.0 mi SSW 3.5 mph - N/A   Clear
3:35 PM 45.5 °F 41.3 °F 8.2 °F 22% 30.29 in 10.0 mi South 8.1 mph - N/A   Clear
3:55 PM 45.9 °F 42.3 °F 9.7 °F 23% 30.28 in 10.0 mi SSE 6.9 mph - N/A   Clear
4:15 PM 45.5 °F 41.3 °F 9.9 °F 24% 30.28 in 10.0 mi SSE 8.1 mph - N/A   Clear
4:35 PM 46.0 °F 41.4 °F 10.2 °F 23% 30.27 in 10.0 mi South 9.2 mph - N/A   Clear
4:55 PM 45.5 °F 42.5 °F 9.5 °F 23% 30.27 in 10.0 mi South 5.8 mph - N/A   Clear
5:15 PM 44.4 °F 41.2 °F 10.2 °F 25% 30.28 in 10.0 mi South 5.8 mph - N/A   Clear
5:35 PM 43.2 °F 40.5 °F 10.8 °F 27% 30.28 in 10.0 mi SSE 4.6 mph - N/A   Clear
5:55 PM 42.1 °F 39.2 °F 10.8 °F 28% 30.28 in 10.0 mi SSE 4.6 mph - N/A   Clear
6:15 PM 41.0 °F 38.0 °F 11.5 °F 30% 30.29 in 10.0 mi SSE 4.6 mph - N/A   Clear
6:35 PM 41.0 °F 38.0 °F 11.1 °F 29% 30.29 in 10.0 mi SE 4.6 mph - N/A   Clear
6:55 PM 37.9 °F 35.5 °F 12.9 °F 36% 30.29 in 10.0 mi SSE 3.5 mph - N/A   Clear
7:15 PM 36.0 °F 33.3 °F 12.6 °F 38% 30.28 in 10.0 mi South 3.5 mph - N/A   Clear
7:55 PM 35.2 °F 32.4 °F 12.4 °F 39% 30.28 in 10.0 mi South 3.5 mph - N/A   Clear
8:15 PM 36.5 °F 32.7 °F 13.1 °F 38% 30.28 in 10.0 mi SSE 4.6 mph - N/A   Clear
8:35 PM 35.6 °F 32.8 °F 11.8 °F 38% 30.27 in 10.0 mi SSE 3.5 mph - N/A   Clear
9:15 PM 36.5 °F - 12.4 °F 37% 30.26 in 10.0 mi Calm Calm - N/A   Clear
9:35 PM 36.5 °F 33.9 °F 13.3 °F 39% 30.25 in 10.0 mi SSE 3.5 mph - N/A   Clear
9:55 PM 36.7 °F 34.1 °F 12.6 °F 37% 30.25 in 10.0 mi South 3.5 mph - N/A   Clear
10:15 PM 36.5 °F 32.7 °F 14.9 °F 41% 30.24 in 10.0 mi SSE 4.6 mph - N/A   Clear
10:35 PM 36.5 °F 32.7 °F 16.0 °F 43% 30.24 in 10.0 mi SSE 4.6 mph - N/A   Clear
11:15 PM 36.5 °F 32.7 °F 16.3 °F 44% 30.23 in 10.0 mi South 4.6 mph - N/A   Clear
11:35 PM 36.3 °F 32.5 °F 17.4 °F 46% 30.22 in 10.0 mi South 4.6 mph - N/A   Clear
11:55 PM 35.8 °F 31.9 °F 18.3 °F 49% 30.22 in 10.0 mi South 4.6 mph - N/A   Clear